FW9848 Weather Reports


Display with metric or nautical units.
time (UTC)temp
F
wind
direction
speed
MPH
gust
MPH
rain 1hr
in
rain 24hr
in
rain mn
in
humidity
%
barometer
mb
20260901041613 85 0 0.0 6.0 0.00 0.00 0.00 62 1017.0
20260901040104 86 0 0.0 0.0 0.00 0.00 0.00 60 1017.0
20260901034607 86 0 0.0 0.0 0.00 0.00 0.00 59 1016.8
20260901033054 87 0 0.0 2.0 0.00 0.00 0.00 58 1016.8
20260901031553 88 0 0.0 6.0 0.00 0.00 0.00 57 1016.6
20260901030059 88 0 0.0 6.0 0.00 0.00 0.00 55 1016.4
20260901024557 89 64 3.0 10.0 0.00 0.00 0.00 54 1016.1
20260901023055 90 49 1.0 8.0 0.00 0.00 0.00 52 1015.8
20260901021554 90 0 0.0 0.0 0.00 0.00 0.00 51 1015.7
20260901020055 90 0 0.0 0.0 0.00 0.00 0.00 50 1015.3
20260901014550 90 0 0.0 0.0 0.00 0.00 0.00 49 1015.1
20260901013100 91 0 0.0 0.0 0.00 0.00 0.00 47 1015.0
20260901011552 91 0 0.0 0.0 0.00 0.00 0.00 46 1015.0
20260901010121 92 0 0.0 0.0 0.00 0.00 0.00 45 1014.8
20260901004557 93 0 0.0 0.0 0.00 0.00 0.00 44 1014.7
20260901003059 94 0 0.0 0.0 0.00 0.00 0.00 43 1014.8
20260901001559 95 0 0.0 0.0 0.00 0.00 0.00 42 1014.6
20260901000104 96 0 0.0 0.0 0.00 0.00 0.00 42 1014.5
20260831234558 97 0 0.0 0.0 0.00 0.00 0.00 39 1014.5
20260831233105 97 0 0.0 0.0 0.00 0.00 0.00 40 1014.4
20260831231611 97 0 0.0 0.0 0.00 0.00 0.00 40 1014.5
20260831230100 98 0 0.0 5.0 0.00 0.00 0.00 39 1014.6
20260831224603 98 0 0.0 0.0 0.00 0.00 0.00 39 1014.7
20260831223059 98 0 0.0 0.0 0.00 0.00 0.00 40 1014.8
20260831221556 98 0 0.0 0.0 0.00 0.00 0.00 40 1015.0
20260831220056 98 0 0.0 4.0 0.00 0.00 0.00 41 1015.1
20260831214610 99 0 0.0 0.0 0.00 0.00 0.00 40 1015.5
20260831213057 99 0 0.0 0.0 0.00 0.00 0.00 41 1015.5
20260831211555 99 0 0.0 0.0 0.00 0.00 0.00 43 1015.8
20260831210055 99 0 0.0 0.0 0.00 0.00 0.00 43 1015.9
20260831204554 98 0 0.0 0.0 0.00 0.00 0.00 43 1016.2
20260831203053 99 0 0.0 0.0 0.00 0.00 0.00 44 1016.6
20260831201556 97 0 0.0 0.0 0.00 0.00 0.00 45 1016.5
20260831200057 97 0 1.0 6.0 0.00 0.00 0.00 46 1016.8
20260831194618 97 0 0.0 0.0 0.00 0.00 0.00 46 1017.2
20260831193051 96 0 0.0 0.0 0.00 0.00 0.00 46 1017.3
20260831191556 95 0 0.0 0.0 0.00 0.00 0.00 49 1017.4
20260831190059 97 0 0.0 6.0 0.00 0.00 0.00 47 1017.7
20260831184555 96 0 0.0 3.0 0.00 0.00 0.00 47 1017.9
20260831183102 95 0 0.0 0.0 0.00 0.00 0.00 51 1017.9
20260831181604 95 0 0.0 0.0 0.00 0.00 0.00 50 1018.1
20260831180107 95 0 0.0 0.0 0.00 0.00 0.00 52 1018.3
20260831174604 94 0 0.0 0.0 0.00 0.00 0.00 53 1018.4
20260831173106 93 0 0.0 0.0 0.00 0.00 0.00 56 1018.4
20260831171606 93 0 0.0 0.0 0.00 0.00 0.00 57 1018.4
20260831170111 92 0 0.0 0.0 0.00 0.00 0.00 59 1018.6
20260831164612 91 0 0.0 0.0 0.00 0.00 0.00 61 1018.7
20260831163102 90 0 0.0 0.0 0.00 0.00 0.00 63 1018.7
20260831161556 89 0 0.0 0.0 0.00 0.00 0.00 65 1018.7
20260831160103 89 0 0.0 0.0 0.00 0.00 0.00 66 1018.8
20260831154623 87 0 0.0 0.0 0.00 0.00 0.00 69 1018.8
20260831153051 87 0 0.0 0.0 0.00 0.00 0.00 71 1018.8
20260831151555 85 0 0.0 0.0 0.00 0.00 0.00 71 1018.6
20260831150055 85 0 0.0 0.0 0.00 0.00 0.00 74 1018.7
20260831144610 84 0 0.0 0.0 0.00 0.00 0.00 75 1018.6
20260831143059 83 0 0.0 0.0 0.00 0.00 0.00 77 1018.6
20260831141556 82 0 0.0 0.0 0.00 0.00 0.00 78 1018.5
20260831140054 81 0 0.0 0.0 0.00 0.00 0.00 79 1018.2
20260831134556 80 0 0.0 0.0 0.00 0.00 0.00 77 1018.3
20260831133053 79 0 0.0 0.0 0.00 0.00 0.00 74 1018.1
20260831131605 78 0 0.0 0.0 0.00 0.00 0.00 70 1017.9
20260831130118 78 0 0.0 0.0 0.00 0.00 0.00 66 1017.9
20260831124556 77 0 0.0 0.0 0.00 0.00 0.00 65 1017.8
20260831123103 77 0 0.0 0.0 0.00 0.00 0.00 67 1017.7
20260831121609 77 0 0.0 0.0 0.00 0.00 0.00 68 1017.7
20260831120059 77 0 0.0 0.0 0.00 0.00 0.00 70 1017.6
20260831114612 78 0 0.0 0.0 0.00 0.00 0.00 73 1017.5
20260831113100 78 0 0.0 0.0 0.00 0.00 0.00 73 1017.6
20260831111603 78 0 0.0 0.0 0.00 0.00 0.00 74 1017.7
20260831110108 78 0 0.0 0.0 0.00 0.00 0.00 74 1017.5
20260831104558 78 0 0.0 0.0 0.00 0.00 0.00 75 1017.6
20260831103101 78 0 0.0 0.0 0.00 0.00 0.00 75 1017.5
20260831101603 79 0 0.0 0.0 0.00 0.00 0.00 76 1017.6
20260831094602 79 0 0.0 0.0 0.00 0.00 0.00 77 1017.5
20260831093103 79 0 0.0 0.0 0.00 0.00 0.00 77 1017.6
20260831091611 79 0 0.0 0.0 0.00 0.00 0.00 77 1017.6
20260831090105 79 0 0.0 0.0 0.00 0.00 0.00 77 1017.6
20260831084557 79 0 0.0 0.0 0.00 0.00 0.00 77 1017.7
20260831083054 79 0 0.0 0.0 0.00 0.00 0.00 77 1017.7
20260831081602 79 0 0.0 1.0 0.00 0.00 0.00 78 1017.7
20260831080100 79 0 0.0 0.0 0.00 0.00 0.00 78 1017.7
20260831074557 79 0 0.0 0.0 0.00 0.00 0.00 78 1017.7
20260831073110 79 0 0.0 0.0 0.00 0.00 0.00 78 1017.8
20260831071601 79 0 0.0 0.0 0.00 0.00 0.00 78 1017.9
20260831064602 80 0 0.0 0.0 0.00 0.00 0.00 77 1017.8
20260831063054 80 0 0.0 0.0 0.00 0.00 0.00 76 1017.8
20260831061610 80 0 0.0 4.0 0.00 0.00 0.00 76 1017.8
20260831060111 81 0 0.0 0.0 0.00 0.00 0.00 75 1017.8
20260831054556 81 0 0.0 3.0 0.00 0.00 0.00 73 1017.7
20260831053103 82 0 0.0 0.0 0.00 0.00 0.00 72 1017.5
20260831051559 82 0 0.0 0.0 0.00 0.00 0.00 71 1017.5
20260831050107 83 0 0.0 0.0 0.00 0.00 0.00 70 1017.4
20260831044604 83 0 0.0 6.0 0.00 0.00 0.00 68 1017.3
20260831043103 84 0 0.0 4.0 0.00 0.00 0.00 67 1017.2